Evening Tide — WY9441 — position and weather

sailwx.info

Track history (hours):
 
Tides and Currents Weather Stations Pressure Air Temp Water Temp Dewpoint Dewpoint Depression Visibility Wind Speed Wind Dir Waves Ship Positions

Evening Tide

Owner: TUG EVENING TIDE CORP, MELVILLE, NY. More information available from US FCC via Universal Licensing System and Coast Guard Vessel Documentation Center.

Last reported at 2018-Feb-19 21:30 UTC. Time now 2018-Feb-19 21:45 UTC.
Position N 40°39' W 074°10'.

Length 43 m.

Type: Towing. MMSI: 367006620.

Date/timePositionNaut miles runAvg speedWind from/ knotsBaromVisibWave heightAir tempDewpointWater temp
2018-Feb-19 21:30N 40°39' W 074°10'1 2.3
2018-Feb-19 20:57N 40°39' W 074°11'1 2.6
2018-Feb-19 20:30N 40°38' W 074°12'1 2.7
2018-Feb-19 19:59N 40°36' W 074°12'0 0.0
2018-Feb-19 19:26N 40°36' W 074°12'0 0.0
2018-Feb-19 18:50N 40°36' W 074°12'0 0.2
2018-Feb-19 18:29N 40°36' W 074°12'0 0.0
2018-Feb-19 17:47N 40°36' W 074°12'0 0.0
2018-Feb-19 17:29N 40°36' W 074°12'0 0.3
2018-Feb-19 16:50N 40°36' W 074°12'2 6.5
2018-Feb-19 16:30N 40°38' W 074°11'4 6.0
2018-Feb-19 15:55N 40°39' W 074°07'0 0.0
2018-Feb-19 15:28N 40°39' W 074°07'0 0.0
2018-Feb-19 14:55N 40°39' W 074°07'0 0.0
2018-Feb-19 14:19N 40°39' W 074°07'0 0.0
2018-Feb-19 13:49N 40°39' W 074°07'0 0.0
2018-Feb-19 13:28N 40°39' W 074°07'0 0.0
2018-Feb-19 12:58N 40°39' W 074°07'0 0.0
2018-Feb-19 12:25N 40°39' W 074°07'0 0.0
2018-Feb-19 11:58N 40°39' W 074°07'0 0.0
2018-Feb-19 11:28N 40°39' W 074°07'0 0.0
2018-Feb-19 10:58N 40°39' W 074°07'0 0.0
2018-Feb-19 10:25N 40°39' W 074°07'0 0.0
2018-Feb-19 09:58N 40°39' W 074°07'0 0.0
2018-Feb-19 09:28N 40°39' W 074°07'0 0.0
2018-Feb-19 08:58N 40°39' W 074°07'0 0.0
2018-Feb-19 08:25N 40°39' W 074°07'0 0.0
2018-Feb-19 07:55N 40°39' W 074°07'0 0.0
2018-Feb-19 05:46N 40°39' W 074°07'0 0.0
2018-Feb-19 04:34N 40°39' W 074°07'0 0.1
2018-Feb-19 04:28N 40°39' W 074°07'0 0.0
2018-Feb-19 03:58N 40°39' W 074°07'1 2.0
2018-Feb-19 03:30N 40°39' W 074°08'4 7.5
2018-Feb-19 03:00N 40°37' W 074°12'0 0.9
2018-Feb-19 02:30N 40°36' W 074°12'0 0.3
2018-Feb-19 02:00N 40°36' W 074°12'2 2.8
2018-Feb-19 01:22N 40°34' W 074°13'0 0.1
2018-Feb-19 00:58N 40°34' W 074°13'2 5.0
2018-Feb-19 00:30N 40°33' W 074°15'0 0.0
2018-Feb-18 05:28N 40°33' W 074°15'3 5.7
2018-Feb-18 05:00N 40°34' W 074°13'1 0.9
2018-Feb-18 04:26N 40°35' W 074°13'0 0.0
2018-Feb-18 03:56N 40°35' W 074°13'0 0.0
2018-Feb-18 03:26N 40°35' W 074°13'0 0.0
2018-Feb-18 02:44N 40°35' W 074°13'0 0.0
2018-Feb-18 02:26N 40°35' W 074°13'0 0.0
2018-Feb-18 01:56N 40°35' W 074°13'0 0.0
2018-Feb-18 01:14N 40°35' W 074°13'0 0.0
2018-Feb-18 00:50N 40°35' W 074°13'0 0.0
2018-Feb-18 00:26N 40°35' W 074°13'0 0.0
2018-Feb-17 23:56N 40°35' W 074°13'0 0.0
2018-Feb-17 23:14N 40°35' W 074°13'0 0.0
2018-Feb-17 22:50N 40°35' W 074°13'0 0.0
2018-Feb-17 22:26N 40°35' W 074°13'0 0.0
2018-Feb-17 21:50N 40°35' W 074°13'0 0.0
2018-Feb-17 21:08N 40°35' W 074°13'0 0.1
2018-Feb-17 20:56N 40°35' W 074°13'0 0.0
2018-Feb-17 20:20N 40°35' W 074°13'0 0.0
2018-Feb-17 19:56N 40°35' W 074°13'0 0.0
2018-Feb-17 19:20N 40°35' W 074°13'0 1.0
2018-Feb-17 18:54N 40°35' W 074°13'1 3.0
2018-Feb-17 18:30N 40°33' W 074°13'2 0.1
2018-Feb-17 07:07N 40°33' W 074°15'1 8.1
2018-Feb-17 06:59N 40°33' W 074°14'3 5.6
2018-Feb-17 06:29N 40°36' W 074°12'0 0.0
2018-Feb-17 05:53N 40°36' W 074°12'0 0.0
2018-Feb-17 05:29N 40°36' W 074°12'0 0.0
2018-Feb-17 04:59N 40°36' W 074°12'0 0.0
2018-Feb-17 04:23N 40°36' W 074°12'0 0.0
2018-Feb-17 03:59N 40°36' W 074°12'0 0.0
2018-Feb-17 03:29N 40°36' W 074°12'0 0.0
2018-Feb-17 02:59N 40°36' W 074°12'2 4.8
2018-Feb-17 02:29N 40°33' W 074°13'1 2.8
2018-Feb-17 01:59N 40°33' W 074°15'0 0.4
2018-Feb-17 01:14N 40°33' W 074°15'2 6.5
2018-Feb-17 00:56N 40°34' W 074°13'3 7.7
2018-Feb-17 00:30N 40°37' W 074°12'3 6.9
2018-Feb-17 00:00N 40°39' W 074°08'7 6.5
2018-Feb-16 22:59N 40°41' W 074°00'0 0.0
2018-Feb-16 22:29N 40°41' W 074°00'0 0.1
2018-Feb-16 22:00N 40°41' W 074°00'4 8.4
2018-Feb-16 21:30N 40°39' W 074°05'2 3.0
2018-Feb-16 20:59N 40°39' W 074°07'0 0.0
2018-Feb-16 20:29N 40°39' W 074°07'0 0.0
2018-Feb-16 19:59N 40°39' W 074°07'0 0.0
2018-Feb-16 19:29N 40°39' W 074°07'0 0.0
2018-Feb-16 18:59N 40°39' W 074°07'2 3.6
2018-Feb-16 18:30N 40°39' W 074°09'4 6.8
2018-Feb-16 17:59N 40°36' W 074°12'5 0.3
2018-Feb-15 20:45N 40°30' W 074°11'2 6.4
2018-Feb-15 20:27N 40°30' W 074°09'0 0.0
2018-Feb-14 11:15N 40°30' W 074°09'0 0.0
2018-Feb-14 10:57N 40°30' W 074°09'0 0.0
2018-Feb-14 10:30N 40°30' W 074°09'0 0.0
2018-Feb-14 08:48N 40°29' W 074°09'0 0.0
2018-Feb-14 08:30N 40°29' W 074°09'0 0.0
2018-Feb-14 07:57N 40°29' W 074°09'0 0.0
2018-Feb-13 23:00N 40°30' W 074°09'0 0.0
2018-Feb-13 22:30N 40°30' W 074°09'0 0.0
2018-Feb-13 21:42N 40°30' W 074°09'0 0.0
2018-Feb-13 21:24N 40°30' W 074°09'0 0.0
2018-Feb-13 16:51N 40°30' W 074°09'0 0.0
2018-Feb-13 15:06N 40°30' W 074°09'0 0.0
2018-Feb-12 23:38N 40°30' W 074°09'0 2.1
2018-Feb-12 23:29N 40°30' W 074°09'6 4.3
2018-Feb-12 22:11N 40°33' W 074°15'2 5.5
2018-Feb-12 21:46N 40°35' W 074°13'2 6.0
2018-Feb-12 21:30N 40°36' W 074°12'3 5.6
2018-Feb-12 21:00N 40°39' W 074°10'4 7.5
2018-Feb-12 20:30N 40°39' W 074°05'2 4.0
2018-Feb-12 19:58N 40°39' W 074°02'0 0.0
2018-Feb-12 19:28N 40°39' W 074°02'0 0.0
2018-Feb-12 18:58N 40°39' W 074°02'0 0.0
2018-Feb-12 18:28N 40°39' W 074°03'0 0.0
2018-Feb-12 17:58N 40°39' W 074°03'0 0.0
2018-Feb-12 17:28N 40°39' W 074°03'0 0.0
2018-Feb-12 16:55N 40°39' W 074°03'0 0.0
2018-Feb-12 16:28N 40°39' W 074°02'0 0.0
2018-Feb-12 15:58N 40°39' W 074°02'0 0.0
2018-Feb-12 15:16N 40°39' W 074°03'0 0.0
2018-Feb-12 14:58N 40°39' W 074°03'0 0.0
2018-Feb-12 14:28N 40°39' W 074°02'0 0.0
2018-Feb-12 13:58N 40°39' W 074°02'0 0.0
2018-Feb-12 13:28N 40°39' W 074°02'0 0.0
2018-Feb-12 13:01N 40°39' W 074°02'0 0.0
2018-Feb-12 12:31N 40°39' W 074°02'0 0.0
2018-Feb-12 12:00N 40°39' W 074°02'0 0.3
2018-Feb-12 11:30N 40°39' W 074°02'0 0.3
2018-Feb-12 10:59N 40°39' W 074°02'0 0.0
2018-Feb-12 10:29N 40°39' W 074°02'0 0.1
2018-Feb-12 09:59N 40°39' W 074°02'0 0.0
2018-Feb-12 09:29N 40°39' W 074°02'0 0.0
2018-Feb-12 08:59N 40°39' W 074°02'0 0.0
2018-Feb-12 08:29N 40°39' W 074°02'0 0.0
2018-Feb-12 07:59N 40°39' W 074°02'0 0.0
2018-Feb-12 07:29N 40°39' W 074°02'0 0.0
2018-Feb-12 06:59N 40°39' W 074°02'0 0.1
2018-Feb-12 06:29N 40°39' W 074°03'0 0.0
2018-Feb-12 05:59N 40°39' W 074°03'0 0.0
2018-Feb-12 05:29N 40°39' W 074°03'0 0.0
2018-Feb-12 04:59N 40°39' W 074°03'0 0.0
2018-Feb-12 04:29N 40°39' W 074°03'0 0.0
2018-Feb-12 03:59N 40°39' W 074°03'0 0.0
2018-Feb-12 03:29N 40°39' W 074°03'0 0.0
2018-Feb-12 02:59N 40°39' W 074°03'0 0.1
2018-Feb-12 02:29N 40°39' W 074°03'0 0.1
2018-Feb-12 01:59N 40°39' W 074°03'0 0.0
2018-Feb-12 01:29N 40°39' W 074°03'0 0.0
2018-Feb-12 00:59N 40°39' W 074°03'0 0.0
2018-Feb-12 00:29N 40°39' W 074°03'0 0.0
2018-Feb-11 23:59N 40°39' W 074°03'0 0.0
2018-Feb-11 23:29N 40°39' W 074°02'0 0.0
2018-Feb-11 22:59N 40°39' W 074°02'0 0.0
2018-Feb-11 22:29N 40°39' W 074°03'0 0.0
2018-Feb-11 21:59N 40°39' W 074°03'0 0.0
2018-Feb-11 21:29N 40°39' W 074°03'0 0.0
2018-Feb-11 20:59N 40°39' W 074°03'0 0.1
2018-Feb-11 20:29N 40°39' W 074°03'0 0.2
2018-Feb-11 19:59N 40°39' W 074°03'0 0.1
2018-Feb-11 19:28N 40°39' W 074°03'0 0.0
2018-Feb-11 18:58N 40°39' W 074°02'0 0.0
2018-Feb-11 18:28N 40°39' W 074°02'0 0.0
2018-Feb-11 17:58N 40°39' W 074°02'0 0.0
2018-Feb-11 17:28N 40°39' W 074°03'0 0.0
2018-Feb-11 16:58N 40°39' W 074°03'0 0.0
2018-Feb-11 16:28N 40°39' W 074°03'0 0.0
2018-Feb-11 15:58N 40°39' W 074°03'0 0.0
2018-Feb-11 15:28N 40°39' W 074°03'0 0.0
2018-Feb-11 14:58N 40°39' W 074°03'0 0.0
2018-Feb-11 14:28N 40°39' W 074°03'0 0.0
2018-Feb-11 13:58N 40°39' W 074°03'0 0.0
2018-Feb-11 13:28N 40°39' W 074°03'0 0.0
2018-Feb-11 12:58N 40°39' W 074°03'0 0.0
2018-Feb-11 12:28N 40°39' W 074°03'2 5.3
2018-Feb-11 12:00N 40°39' W 074°06'5 9.1
2018-Feb-11 11:28N 40°38' W 074°12'5 2.7
2018-Feb-11 09:43N 40°33' W 074°14'1 4.4
2018-Feb-11 09:27N 40°34' W 074°13'2 3.8
2018-Feb-11 08:56N 40°36' W 074°12'0 0.0
2018-Feb-11 08:29N 40°36' W 074°12'0 0.0
2018-Feb-11 07:59N 40°36' W 074°12'0 0.0
2018-Feb-11 07:29N 40°36' W 074°12'0 0.5
2018-Feb-11 06:39N 40°35' W 074°12'1 4.3
2018-Feb-11 06:30N 40°36' W 074°12'3 6.8
2018-Feb-11 05:59N 40°39' W 074°09'4 8.4
2018-Feb-11 05:30N 40°39' W 074°04'1 2.3
2018-Feb-11 04:59N 40°39' W 074°03'0 0.0
2018-Feb-11 04:29N 40°39' W 074°02'0 0.0
2018-Feb-11 03:59N 40°39' W 074°03'0 0.0
2018-Feb-11 03:29N 40°39' W 074°03'0 0.0
2018-Feb-11 02:59N 40°39' W 074°03'0 0.0
2018-Feb-11 02:29N 40°39' W 074°03'0 0.0
2018-Feb-11 01:59N 40°39' W 074°03'0 0.0
2018-Feb-11 01:29N 40°39' W 074°03'0 0.0
2018-Feb-11 00:59N 40°39' W 074°03'0 0.0
2018-Feb-11 00:29N 40°39' W 074°03'0 0.0
2018-Feb-10 23:59N 40°39' W 074°03'0 0.0
2018-Feb-10 23:29N 40°39' W 074°03'0 0.0
2018-Feb-10 22:59N 40°39' W 074°02'0 0.0
2018-Feb-10 22:29N 40°39' W 074°03'0 0.1
2018-Feb-10 21:59N 40°39' W 074°03'0 0.0
2018-Feb-10 21:29N 40°39' W 074°03'0 0.0
2018-Feb-10 20:59N 40°39' W 074°03'0 0.1
2018-Feb-10 20:29N 40°39' W 074°02'0 0.0
2018-Feb-10 19:59N 40°39' W 074°02'0 0.0
2018-Feb-10 19:29N 40°39' W 074°02'0 0.1
2018-Feb-10 19:01N 40°39' W 074°03'4 7.4
2018-Feb-10 18:31N 40°39' W 074°07'4 7.2
2018-Feb-10 18:00N 40°38' W 074°12'2 1.1
2018-Feb-10 15:51N 40°36' W 074°12'2 7.1
2018-Feb-10 15:30N 40°38' W 074°12'3 6.7
2018-Feb-10 15:00N 40°39' W 074°08'3 6.0
2018-Feb-10 14:30N 40°39' W 074°04'1 1.8
2018-Feb-10 14:00N 40°39' W 074°03'0 0.0
2018-Feb-10 13:30N 40°39' W 074°03'0 0.0
2018-Feb-10 13:00N 40°39' W 074°03'0 0.0
2018-Feb-10 12:30N 40°39' W 074°03'0 0.0
2018-Feb-10 12:00N 40°39' W 074°03'0 0.0
2018-Feb-10 11:30N 40°39' W 074°03'0 0.1
2018-Feb-10 11:00N 40°39' W 074°03'0 0.0
2018-Feb-10 10:30N 40°39' W 074°03'0 0.0
2018-Feb-10 10:00N 40°39' W 074°03'0 0.0
2018-Feb-10 09:30N 40°39' W 074°03'0 0.0
2018-Feb-10 09:00N 40°39' W 074°03'0 0.0
2018-Feb-10 08:30N 40°39' W 074°03'0 0.0
2018-Feb-10 08:00N 40°39' W 074°03'0 0.0
2018-Feb-10 07:30N 40°39' W 074°03'0 0.0
2018-Feb-10 07:00N 40°39' W 074°02'0 0.1
2018-Feb-10 06:30N 40°39' W 074°02'0 0.0
2018-Feb-10 06:00N 40°39' W 074°02'0 0.1
2018-Feb-10 05:30N 40°39' W 074°02'0 0.0
2018-Feb-10 05:00N 40°39' W 074°02'0 0.0
2018-Feb-10 04:30N 40°39' W 074°02'0 0.0
2018-Feb-10 04:00N 40°39' W 074°02'0 0.1
2018-Feb-10 03:30N 40°39' W 074°03'0 0.1
2018-Feb-10 03:00N 40°39' W 074°03'0 0.0
2018-Feb-10 02:30N 40°39' W 074°03'0 0.0
2018-Feb-10 02:00N 40°39' W 074°03'0 0.0
2018-Feb-10 01:30N 40°39' W 074°03'0 0.2
2018-Feb-10 01:00N 40°39' W 074°03'0 0.1
2018-Feb-10 00:30N 40°39' W 074°03'0 0.0
2018-Feb-10 00:00N 40°39' W 074°03'0 0.0
2018-Feb-09 23:30N 40°39' W 074°03'0 0.0
2018-Feb-09 23:00N 40°39' W 074°03'0 0.0
2018-Feb-09 22:45N 40°39' W 074°03'  
Track history (hours):
 
Tides and Currents Weather Stations Pressure Air Temp Water Temp Dewpoint Dewpoint Depression Visibility Wind Speed Wind Dir Waves Ship Positions

Evening Tide

Owner: TUG EVENING TIDE CORP, MELVILLE, NY. More information available from US FCC via Universal Licensing System and Coast Guard Vessel Documentation Center.

Last reported at 2018-Feb-19 21:30 UTC. Time now 2018-Feb-19 21:45 UTC.
Position N 40°39' W 074°10'.

Length 43 m.

Type: Towing. MMSI: 367006620.

Date/timePositionNaut miles runAvg speedWind from/ knotsBaromVisibWave heightAir tempDewpointWater temp
2018-Feb-19 21:30N 40°39' W 074°10'1 2.3
2018-Feb-19 20:57N 40°39' W 074°11'1 2.6
2018-Feb-19 20:30N 40°38' W 074°12'1 2.7
2018-Feb-19 19:59N 40°36' W 074°12'0 0.0
2018-Feb-19 19:26N 40°36' W 074°12'0 0.0
2018-Feb-19 18:50N 40°36' W 074°12'0 0.2
2018-Feb-19 18:29N 40°36' W 074°12'0 0.0
2018-Feb-19 17:47N 40°36' W 074°12'0 0.0
2018-Feb-19 17:29N 40°36' W 074°12'0 0.3
2018-Feb-19 16:50N 40°36' W 074°12'2 6.5
2018-Feb-19 16:30N 40°38' W 074°11'4 6.0
2018-Feb-19 15:55N 40°39' W 074°07'0 0.0
2018-Feb-19 15:28N 40°39' W 074°07'0 0.0
2018-Feb-19 14:55N 40°39' W 074°07'0 0.0
2018-Feb-19 14:19N 40°39' W 074°07'0 0.0
2018-Feb-19 13:49N 40°39' W 074°07'0 0.0
2018-Feb-19 13:28N 40°39' W 074°07'0 0.0
2018-Feb-19 12:58N 40°39' W 074°07'0 0.0
2018-Feb-19 12:25N 40°39' W 074°07'0 0.0
2018-Feb-19 11:58N 40°39' W 074°07'0 0.0
2018-Feb-19 11:28N 40°39' W 074°07'0 0.0
2018-Feb-19 10:58N 40°39' W 074°07'0 0.0
2018-Feb-19 10:25N 40°39' W 074°07'0 0.0
2018-Feb-19 09:58N 40°39' W 074°07'0 0.0
2018-Feb-19 09:28N 40°39' W 074°07'0 0.0
2018-Feb-19 08:58N 40°39' W 074°07'0 0.0
2018-Feb-19 08:25N 40°39' W 074°07'0 0.0
2018-Feb-19 07:55N 40°39' W 074°07'0 0.0
2018-Feb-19 05:46N 40°39' W 074°07'0 0.0
2018-Feb-19 04:34N 40°39' W 074°07'0 0.1
2018-Feb-19 04:28N 40°39' W 074°07'0 0.0
2018-Feb-19 03:58N 40°39' W 074°07'1 2.0
2018-Feb-19 03:30N 40°39' W 074°08'4 7.5
2018-Feb-19 03:00N 40°37' W 074°12'0 0.9
2018-Feb-19 02:30N 40°36' W 074°12'0 0.3
2018-Feb-19 02:00N 40°36' W 074°12'2 2.8
2018-Feb-19 01:22N 40°34' W 074°13'0 0.1
2018-Feb-19 00:58N 40°34' W 074°13'2 5.0
2018-Feb-19 00:30N 40°33' W 074°15'0 0.0
2018-Feb-18 05:28N 40°33' W 074°15'3 5.7
2018-Feb-18 05:00N 40°34' W 074°13'1 0.9
2018-Feb-18 04:26N 40°35' W 074°13'0 0.0
2018-Feb-18 03:56N 40°35' W 074°13'0 0.0
2018-Feb-18 03:26N 40°35' W 074°13'0 0.0
2018-Feb-18 02:44N 40°35' W 074°13'0 0.0
2018-Feb-18 02:26N 40°35' W 074°13'0 0.0
2018-Feb-18 01:56N 40°35' W 074°13'0 0.0
2018-Feb-18 01:14N 40°35' W 074°13'0 0.0
2018-Feb-18 00:50N 40°35' W 074°13'0 0.0
2018-Feb-18 00:26N 40°35' W 074°13'0 0.0
2018-Feb-17 23:56N 40°35' W 074°13'0 0.0
2018-Feb-17 23:14N 40°35' W 074°13'0 0.0
2018-Feb-17 22:50N 40°35' W 074°13'0 0.0
2018-Feb-17 22:26N 40°35' W 074°13'0 0.0
2018-Feb-17 21:50N 40°35' W 074°13'0 0.0
2018-Feb-17 21:08N 40°35' W 074°13'0 0.1
2018-Feb-17 20:56N 40°35' W 074°13'0 0.0
2018-Feb-17 20:20N 40°35' W 074°13'0 0.0
2018-Feb-17 19:56N 40°35' W 074°13'0 0.0
2018-Feb-17 19:20N 40°35' W 074°13'0 1.0
2018-Feb-17 18:54N 40°35' W 074°13'1 3.0
2018-Feb-17 18:30N 40°33' W 074°13'2 0.1
2018-Feb-17 07:07N 40°33' W 074°15'1 8.1
2018-Feb-17 06:59N 40°33' W 074°14'3 5.6
2018-Feb-17 06:29N 40°36' W 074°12'0 0.0
2018-Feb-17 05:53N 40°36' W 074°12'0 0.0
2018-Feb-17 05:29N 40°36' W 074°12'0 0.0
2018-Feb-17 04:59N 40°36' W 074°12'0 0.0
2018-Feb-17 04:23N 40°36' W 074°12'0 0.0
2018-Feb-17 03:59N 40°36' W 074°12'0 0.0
2018-Feb-17 03:29N 40°36' W 074°12'0 0.0
2018-Feb-17 02:59N 40°36' W 074°12'2 4.8
2018-Feb-17 02:29N 40°33' W 074°13'1 2.8
2018-Feb-17 01:59N 40°33' W 074°15'0 0.4
2018-Feb-17 01:14N 40°33' W 074°15'2 6.5
2018-Feb-17 00:56N 40°34' W 074°13'3 7.7
2018-Feb-17 00:30N 40°37' W 074°12'3 6.9
2018-Feb-17 00:00N 40°39' W 074°08'7 6.5
2018-Feb-16 22:59N 40°41' W 074°00'0 0.0
2018-Feb-16 22:29N 40°41' W 074°00'0 0.1
2018-Feb-16 22:00N 40°41' W 074°00'4 8.4
2018-Feb-16 21:30N 40°39' W 074°05'2 3.0
2018-Feb-16 20:59N 40°39' W 074°07'0 0.0
2018-Feb-16 20:29N 40°39' W 074°07'0 0.0
2018-Feb-16 19:59N 40°39' W 074°07'0 0.0
2018-Feb-16 19:29N 40°39' W 074°07'0 0.0
2018-Feb-16 18:59N 40°39' W 074°07'2 3.6
2018-Feb-16 18:30N 40°39' W 074°09'4 6.8
2018-Feb-16 17:59N 40°36' W 074°12'5 0.3
2018-Feb-15 20:45N 40°30' W 074°11'2 6.4
2018-Feb-15 20:27N 40°30' W 074°09'0 0.0
2018-Feb-14 11:15N 40°30' W 074°09'0 0.0
2018-Feb-14 10:57N 40°30' W 074°09'0 0.0
2018-Feb-14 10:30N 40°30' W 074°09'0 0.0
2018-Feb-14 08:48N 40°29' W 074°09'0 0.0
2018-Feb-14 08:30N 40°29' W 074°09'0 0.0
2018-Feb-14 07:57N 40°29' W 074°09'0 0.0
2018-Feb-13 23:00N 40°30' W 074°09'0 0.0
2018-Feb-13 22:30N 40°30' W 074°09'0 0.0
2018-Feb-13 21:42N 40°30' W 074°09'0 0.0
2018-Feb-13 21:24N 40°30' W 074°09'0 0.0
2018-Feb-13 16:51N 40°30' W 074°09'0 0.0
2018-Feb-13 15:06N 40°30' W 074°09'0 0.0
2018-Feb-12 23:38N 40°30' W 074°09'0 2.1
2018-Feb-12 23:29N 40°30' W 074°09'6 4.3
2018-Feb-12 22:11N 40°33' W 074°15'2 5.5
2018-Feb-12 21:46N 40°35' W 074°13'2 6.0
2018-Feb-12 21:30N 40°36' W 074°12'3 5.6
2018-Feb-12 21:00N 40°39' W 074°10'4 7.5
2018-Feb-12 20:30N 40°39' W 074°05'2 4.0
2018-Feb-12 19:58N 40°39' W 074°02'0 0.0
2018-Feb-12 19:28N 40°39' W 074°02'0 0.0
2018-Feb-12 18:58N 40°39' W 074°02'0 0.0
2018-Feb-12 18:28N 40°39' W 074°03'0 0.0
2018-Feb-12 17:58N 40°39' W 074°03'0 0.0
2018-Feb-12 17:28N 40°39' W 074°03'0 0.0
2018-Feb-12 16:55N 40°39' W 074°03'0 0.0
2018-Feb-12 16:28N 40°39' W 074°02'0 0.0
2018-Feb-12 15:58N 40°39' W 074°02'0 0.0
2018-Feb-12 15:16N 40°39' W 074°03'0 0.0
2018-Feb-12 14:58N 40°39' W 074°03'0 0.0
2018-Feb-12 14:28N 40°39' W 074°02'0 0.0
2018-Feb-12 13:58N 40°39' W 074°02'0 0.0
2018-Feb-12 13:28N 40°39' W 074°02'0 0.0
2018-Feb-12 13:01N 40°39' W 074°02'0 0.0
2018-Feb-12 12:31N 40°39' W 074°02'0 0.0
2018-Feb-12 12:00N 40°39' W 074°02'0 0.3
2018-Feb-12 11:30N 40°39' W 074°02'0 0.3
2018-Feb-12 10:59N 40°39' W 074°02'0 0.0
2018-Feb-12 10:29N 40°39' W 074°02'0 0.1
2018-Feb-12 09:59N 40°39' W 074°02'0 0.0
2018-Feb-12 09:29N 40°39' W 074°02'0 0.0
2018-Feb-12 08:59N 40°39' W 074°02'0 0.0
2018-Feb-12 08:29N 40°39' W 074°02'0 0.0
2018-Feb-12 07:59N 40°39' W 074°02'0 0.0
2018-Feb-12 07:29N 40°39' W 074°02'0 0.0
2018-Feb-12 06:59N 40°39' W 074°02'0 0.1
2018-Feb-12 06:29N 40°39' W 074°03'0 0.0
2018-Feb-12 05:59N 40°39' W 074°03'0 0.0
2018-Feb-12 05:29N 40°39' W 074°03'0 0.0
2018-Feb-12 04:59N 40°39' W 074°03'0 0.0
2018-Feb-12 04:29N 40°39' W 074°03'0 0.0
2018-Feb-12 03:59N 40°39' W 074°03'0 0.0
2018-Feb-12 03:29N 40°39' W 074°03'0 0.0
2018-Feb-12 02:59N 40°39' W 074°03'0 0.1
2018-Feb-12 02:29N 40°39' W 074°03'0 0.1
2018-Feb-12 01:59N 40°39' W 074°03'0 0.0
2018-Feb-12 01:29N 40°39' W 074°03'0 0.0
2018-Feb-12 00:59N 40°39' W 074°03'0 0.0
2018-Feb-12 00:29N 40°39' W 074°03'0 0.0
2018-Feb-11 23:59N 40°39' W 074°03'0 0.0
2018-Feb-11 23:29N 40°39' W 074°02'0 0.0
2018-Feb-11 22:59N 40°39' W 074°02'0 0.0
2018-Feb-11 22:29N 40°39' W 074°03'0 0.0
2018-Feb-11 21:59N 40°39' W 074°03'0 0.0
2018-Feb-11 21:29N 40°39' W 074°03'0 0.0
2018-Feb-11 20:59N 40°39' W 074°03'0 0.1
2018-Feb-11 20:29N 40°39' W 074°03'0 0.2
2018-Feb-11 19:59N 40°39' W 074°03'0 0.1
2018-Feb-11 19:28N 40°39' W 074°03'0 0.0
2018-Feb-11 18:58N 40°39' W 074°02'0 0.0
2018-Feb-11 18:28N 40°39' W 074°02'0 0.0
2018-Feb-11 17:58N 40°39' W 074°02'0 0.0
2018-Feb-11 17:28N 40°39' W 074°03'0 0.0
2018-Feb-11 16:58N 40°39' W 074°03'0 0.0
2018-Feb-11 16:28N 40°39' W 074°03'0 0.0
2018-Feb-11 15:58N 40°39' W 074°03'0 0.0
2018-Feb-11 15:28N 40°39' W 074°03'0 0.0
2018-Feb-11 14:58N 40°39' W 074°03'0 0.0
2018-Feb-11 14:28N 40°39' W 074°03'0 0.0
2018-Feb-11 13:58N 40°39' W 074°03'0 0.0
2018-Feb-11 13:28N 40°39' W 074°03'0 0.0
2018-Feb-11 12:58N 40°39' W 074°03'0 0.0
2018-Feb-11 12:28N 40°39' W 074°03'2 5.3
2018-Feb-11 12:00N 40°39' W 074°06'5 9.1
2018-Feb-11 11:28N 40°38' W 074°12'5 2.7
2018-Feb-11 09:43N 40°33' W 074°14'1 4.4
2018-Feb-11 09:27N 40°34' W 074°13'2 3.8
2018-Feb-11 08:56N 40°36' W 074°12'0 0.0
2018-Feb-11 08:29N 40°36' W 074°12'0 0.0
2018-Feb-11 07:59N 40°36' W 074°12'0 0.0
2018-Feb-11 07:29N 40°36' W 074°12'0 0.5
2018-Feb-11 06:39N 40°35' W 074°12'1 4.3
2018-Feb-11 06:30N 40°36' W 074°12'3 6.8
2018-Feb-11 05:59N 40°39' W 074°09'4 8.4
2018-Feb-11 05:30N 40°39' W 074°04'1 2.3
2018-Feb-11 04:59N 40°39' W 074°03'0 0.0
2018-Feb-11 04:29N 40°39' W 074°02'0 0.0
2018-Feb-11 03:59N 40°39' W 074°03'0 0.0
2018-Feb-11 03:29N 40°39' W 074°03'0 0.0
2018-Feb-11 02:59N 40°39' W 074°03'0 0.0
2018-Feb-11 02:29N 40°39' W 074°03'0 0.0
2018-Feb-11 01:59N 40°39' W 074°03'0 0.0
2018-Feb-11 01:29N 40°39' W 074°03'0 0.0
2018-Feb-11 00:59N 40°39' W 074°03'0 0.0
2018-Feb-11 00:29N 40°39' W 074°03'0 0.0
2018-Feb-10 23:59N 40°39' W 074°03'0 0.0
2018-Feb-10 23:29N 40°39' W 074°03'0 0.0
2018-Feb-10 22:59N 40°39' W 074°02'0 0.0
2018-Feb-10 22:29N 40°39' W 074°03'0 0.1
2018-Feb-10 21:59N 40°39' W 074°03'0 0.0
2018-Feb-10 21:29N 40°39' W 074°03'0 0.0
2018-Feb-10 20:59N 40°39' W 074°03'0 0.1
2018-Feb-10 20:29N 40°39' W 074°02'0 0.0
2018-Feb-10 19:59N 40°39' W 074°02'0 0.0
2018-Feb-10 19:29N 40°39' W 074°02'0 0.1
2018-Feb-10 19:01N 40°39' W 074°03'4 7.4
2018-Feb-10 18:31N 40°39' W 074°07'4 7.2
2018-Feb-10 18:00N 40°38' W 074°12'2 1.1
2018-Feb-10 15:51N 40°36' W 074°12'2 7.1
2018-Feb-10 15:30N 40°38' W 074°12'3 6.7
2018-Feb-10 15:00N 40°39' W 074°08'3 6.0
2018-Feb-10 14:30N 40°39' W 074°04'1 1.8
2018-Feb-10 14:00N 40°39' W 074°03'0 0.0
2018-Feb-10 13:30N 40°39' W 074°03'0 0.0
2018-Feb-10 13:00N 40°39' W 074°03'0 0.0
2018-Feb-10 12:30N 40°39' W 074°03'0 0.0
2018-Feb-10 12:00N 40°39' W 074°03'0 0.0
2018-Feb-10 11:30N 40°39' W 074°03'0 0.1
2018-Feb-10 11:00N 40°39' W 074°03'0 0.0
2018-Feb-10 10:30N 40°39' W 074°03'0 0.0
2018-Feb-10 10:00N 40°39' W 074°03'0 0.0
2018-Feb-10 09:30N 40°39' W 074°03'0 0.0
2018-Feb-10 09:00N 40°39' W 074°03'0 0.0
2018-Feb-10 08:30N 40°39' W 074°03'0 0.0
2018-Feb-10 08:00N 40°39' W 074°03'0 0.0
2018-Feb-10 07:30N 40°39' W 074°03'0 0.0
2018-Feb-10 07:00N 40°39' W 074°02'0 0.1
2018-Feb-10 06:30N 40°39' W 074°02'0 0.0
2018-Feb-10 06:00N 40°39' W 074°02'0 0.1
2018-Feb-10 05:30N 40°39' W 074°02'0 0.0
2018-Feb-10 05:00N 40°39' W 074°02'0 0.0
2018-Feb-10 04:30N 40°39' W 074°02'0 0.0
2018-Feb-10 04:00N 40°39' W 074°02'0 0.1
2018-Feb-10 03:30N 40°39' W 074°03'0 0.1
2018-Feb-10 03:00N 40°39' W 074°03'0 0.0
2018-Feb-10 02:30N 40°39' W 074°03'0 0.0
2018-Feb-10 02:00N 40°39' W 074°03'0 0.0
2018-Feb-10 01:30N 40°39' W 074°03'0 0.2
2018-Feb-10 01:00N 40°39' W 074°03'0 0.1
2018-Feb-10 00:30N 40°39' W 074°03'0 0.0
2018-Feb-10 00:00N 40°39' W 074°03'0 0.0
2018-Feb-09 23:30N 40°39' W 074°03'0 0.0
2018-Feb-09 23:00N 40°39' W 074°03'0 0.0
2018-Feb-09 22:45N 40°39' W 074°03'  

Dump ship's entire track history